Raton, NM

1:21 AM MST on February 09, 2016 (GMT -0700)
Raton Municipal-Crews

Weather History for KRTN - April, 2013

Change the Weather History Date:

Saturday, April 13, 2013

  Actual Average (KTAD) Record (KTAD)
Temperature  
Mean Temperature 49 °F 49 °F  
Max Temperature 71 °F 64 °F 87 °F (2006)
Min Temperature 28 °F 33 °F 12 °F (1997)
Degree Days  
Heating Degree Days 16 16  
Month to date heating degree days 231  
Since 1 July heating degree days 5060  
Cooling Degree Days 0 0  
Month to date cooling degree days 0  
Year to date cooling degree days 0  
Moisture  
Dew Point 19 °F    
Average Humidity 38    
Maximum Humidity 81    
Minimum Humidity 9    
Precipitation  
Precipitation 0.00 in 0.04 in 0.64 in (1967)
Month to date precipitation 0.43  
Year to date precipitation 2.21  
Sea Level Pressure  
Sea Level Pressure 29.63 in    
Wind  
Wind Speed 10 mph (SW)    
Max Wind Speed 29 mph    
Max Gust Speed 39 mph    
T = Trace of Precipitation, MM = Missing Value Source: NWS Daily Summary

Daily Weather History Graph

Daily Weather History Graph

Search for Another Location

Airport or City:

Trip Planner

Search our weather history database for the weather conditions in past years. The results will help you decide how hot, cold, wet, or windy it might be!

Date:

Astronomy

Apr. 13, 2013 Rise Set
Actual Time 6:26 AM MDT 7:31 PM MDT
Civil Twilight 5:59 AM MDT 7:57 PM MDT
Nautical Twilight 5:28 AM MDT 8:29 PM MDT
Astronomical Twilight 4:55 AM MDT 9:02 PM MDT
Moon 8:23 AM MDT (4/13) 10:52 PM MDT (4/13)
Length of Visible Light 13h 57m
Length of Day
13h 04m
Waxing Crescent, 11% of the Moon is Illuminated
Apr 13
Waxing Crescent
Apr 18
First Quarter
Apr 25
Full
May 2
Last Quarter
May 9
New

Hourly Weather History & Observations

Time (MDT) Temp. Windchill Dew Point Humidity Pressure Visibility Wind Dir Wind Speed Gust Speed Precip Events Conditions
12:53 AM 42.1 °F 36.1 °F 27.0 °F 55% 29.86 in - North 10.4 mph - N/A   Clear
1:53 AM 37.0 °F 31.6 °F 26.1 °F 65% 29.87 in - SE 6.9 mph - N/A   Clear
2:53 AM 33.1 °F - 25.0 °F 72% 29.85 in - Calm Calm - N/A   Clear
3:53 AM 34.0 °F - 26.1 °F 73% 29.84 in - Calm Calm - N/A   Clear
4:53 AM 28.9 °F 25.2 °F 23.0 °F 78% 29.86 in - NNE 3.5 mph - N/A   Clear
5:53 AM 28.0 °F - 23.0 °F 81% 29.86 in - Calm Calm - N/A   Clear
6:53 AM 28.9 °F 23.9 °F 23.0 °F 78% 29.86 in - NNE 4.6 mph - N/A   Clear
7:53 AM 39.9 °F 37.8 °F 28.0 °F 63% 29.81 in - NE 3.5 mph - N/A   Clear
8:53 AM 45.0 °F 41.8 °F 30.0 °F 56% 29.79 in - South 5.8 mph - N/A   Clear
9:53 AM 48.9 °F - 30.9 °F 50% 29.74 in - SSW 10.4 mph - N/A   Clear
10:53 AM 53.1 °F - 30.0 °F 41% 29.70 in - SSW 12.7 mph 20.7 mph N/A   Clear
11:53 AM 59.0 °F - 25.0 °F 27% 29.65 in - SW 16.1 mph 20.7 mph N/A   Clear
12:53 PM 66.9 °F - 7.0 °F 10% 29.55 in - SW 19.6 mph 25.3 mph N/A   Clear
1:53 PM 69.1 °F - 7.0 °F 9% 29.53 in - SW 19.6 mph 36.8 mph N/A   Clear
2:53 PM 70.0 °F - 10.0 °F 10% 29.50 in - SSW 18.4 mph 39.1 mph N/A   Partly Cloudy
3:53 PM 70.0 °F - 12.0 °F 11% 29.46 in - SW 28.8 mph 36.8 mph N/A   Scattered Clouds
4:53 PM 66.9 °F - 10.9 °F 11% 29.48 in - SW 19.6 mph 35.7 mph N/A   Scattered Clouds
5:53 PM 66.9 °F - 10.9 °F 11% 29.47 in - West 25.3 mph 36.8 mph N/A   Clear
6:53 PM 63.0 °F - 10.9 °F 13% 29.48 in - West 21.9 mph 33.4 mph N/A   Clear
7:53 PM 57.0 °F - 12.9 °F 18% 29.44 in - SW 10.4 mph - N/A   Clear
8:53 PM 57.9 °F - 14.0 °F 18% 29.42 in - SW 20.7 mph 28.8 mph N/A   Clear
9:53 PM 55.9 °F - 12.0 °F 18% 29.42 in - SW 12.7 mph - N/A   Clear
10:53 PM 52.0 °F - 12.9 °F 21% 29.41 in - SW 11.5 mph - N/A   Clear
11:53 PM 57.0 °F - 15.1 °F 19% 29.34 in - SW 18.4 mph - N/A   Clear